SVOM

operational
NORAD ID: 60088 Int'l Des: 2024-116 Owner: CASC/CNES Country: CN
LEOCIRCULAR

About SVOM

Description loading...

Live Position

Loading 3D Globe...

Upcoming Passes

Altitude History

Altitude vs Time

uPlot chart will show altitude changes over time

Two-Line Element Set

1 60088U 24116A 26063.19267898 .00003439 00000-0 38445-3 0 9999
2 60088 28.9962 55.8655 0004284 72.4396 287.6665 14.84520303 92048
Epoch: Mar 4, 2026 • Age: 11 hours

Current Status

Altitude 623.0 km
Velocity 7.55 km/s
Sub-Earth Point -27.04°S, 24.17°E
Launch Date Jun 22, 2024
Age 1.6 years
Type other

Technical Details

Classification Payload
Mass 930.00 kg
Dry Mass 930.00 kg
Total Mass 930.00 kg
Length 1.50 m
Diameter 1.20 m
Span 10.00 m
Shape Box + 2 pan
Manufacturer IMICAS
Bus Type SVOM
Phase Status In Orbit
Owner/State CASC/CNES/CN

Large Constellations

Loading constellations...